| time (UTC) | temp C | wind direction | speed KPH | gust KPH | rain 1hr cm | rain 24hr cm | rain mn cm | humidity % | barometer mb |
| 20260504223050 | 25 | 298 | 3.2 | 3.2 | 0.00 | 0.00 | 0.00 | 39 | 997.7 |
| 20260504222547 | 25 | 243 | 8.0 | 9.7 | 0.00 | 0.00 | 0.00 | 38 | 997.7 |
| 20260504222045 | 24 | 267 | 1.6 | 3.2 | 0.00 | 0.00 | 0.00 | 37 | 997.9 |
| 20260504221542 | 24 | 188 | 16.1 | 24.1 | 0.00 | 0.00 | 0.00 | 37 | 997.8 |
| 20260504221039 | 24 | 357 | 11.3 | 12.9 | 0.00 | 0.00 | 0.00 | 36 | 998.1 |
| 20260504220535 | 25 | 249 | 1.6 | 4.8 | 0.00 | 0.00 | 0.00 | 39 | 998.1 |
| 20260504220032 | 25 | 256 | 3.2 | 3.2 | 0.00 | 0.00 | 0.00 | 37 | 998.1 |
| 20260504215529 | 24 | 245 | 6.4 | 12.9 | 0.00 | 0.00 | 0.00 | 37 | 998.3 |
| 20260504215026 | 24 | 226 | 11.3 | 14.5 | 0.00 | 0.00 | 0.00 | 37 | 998.1 |
| 20260504214522 | 25 | 309 | 6.4 | 11.3 | 0.00 | 0.00 | 0.00 | 36 | 998.3 |
| 20260504214018 | 25 | 129 | 3.2 | 4.8 | 0.00 | 0.00 | 0.00 | 36 | 998.2 |
| 20260504213515 | 25 | 132 | 8.0 | 12.9 | 0.00 | 0.00 | 0.00 | 35 | 998.3 |
| 20260504213013 | 25 | 259 | 1.6 | 1.6 | 0.00 | 0.00 | 0.00 | 35 | 998.3 |
| 20260504212508 | 25 | 232 | 3.2 | 8.0 | 0.00 | 0.00 | 0.00 | 34 | 998.3 |
| 20260504212006 | 24 | 227 | 3.2 | 4.8 | 0.00 | 0.00 | 0.00 | 35 | 998.4 |
| 20260504211502 | 23 | 193 | 1.6 | 3.2 | 0.00 | 0.00 | 0.00 | 36 | 998.6 |
| 20260504211000 | 23 | 208 | 8.0 | 12.9 | 0.00 | 0.00 | 0.00 | 35 | 998.5 |
| 20260504210456 | 23 | 282 | 6.4 | 9.7 | 0.00 | 0.00 | 0.00 | 35 | 998.7 |
| 20260504205953 | 23 | 217 | 0.0 | 1.6 | 0.00 | 0.00 | 0.00 | 36 | 998.6 |
| 20260504205451 | 24 | 217 | 6.4 | 9.7 | 0.00 | 0.00 | 0.00 | 33 | 998.7 |
| 20260504204949 | 24 | 281 | 3.2 | 8.0 | 0.00 | 0.00 | 0.00 | 33 | 998.4 |
| 20260504204447 | 24 | 297 | 17.7 | 20.9 | 0.00 | 0.00 | 0.00 | 33 | 998.8 |
| 20260504203946 | 24 | 257 | 4.8 | 4.8 | 0.00 | 0.00 | 0.00 | 33 | 998.4 |
| 20260504203443 | 24 | 299 | 0.0 | 1.6 | 0.00 | 0.00 | 0.00 | 34 | 998.5 |
| 20260504202939 | 25 | 289 | 17.7 | 25.7 | 0.00 | 0.00 | 0.00 | 31 | 998.5 |
| 20260504202436 | 25 | 211 | 1.6 | 3.2 | 0.00 | 0.00 | 0.00 | 31 | 998.6 |
| 20260504201932 | 25 | 243 | 6.4 | 9.7 | 0.00 | 0.00 | 0.00 | 31 | 998.6 |
| 20260504201430 | 24 | 238 | 8.0 | 12.9 | 0.00 | 0.00 | 0.00 | 31 | 998.5 |
| 20260504200927 | 25 | 219 | 8.0 | 12.9 | 0.00 | 0.00 | 0.00 | 32 | 998.6 |
| 20260504200424 | 24 | 283 | 16.1 | 22.5 | 0.00 | 0.00 | 0.00 | 31 | 998.8 |
| 20260504195921 | 24 | 280 | 0.0 | 1.6 | 0.00 | 0.00 | 0.00 | 32 | 998.9 |
| 20260504195416 | 24 | 140 | 16.1 | 22.5 | 0.00 | 0.00 | 0.00 | 30 | 998.7 |
| 20260504194913 | 24 | 220 | 6.4 | 9.7 | 0.00 | 0.00 | 0.00 | 32 | 999.0 |
| 20260504194409 | 24 | 274 | 1.6 | 4.8 | 0.00 | 0.00 | 0.00 | 31 | 999.1 |
| 20260504193905 | 23 | 293 | 4.8 | 8.0 | 0.00 | 0.00 | 0.00 | 32 | 998.9 |
| 20260504193403 | 24 | 231 | 9.7 | 12.9 | 0.00 | 0.00 | 0.00 | 31 | 999.6 |
| 20260504192901 | 24 | 245 | 19.3 | 22.5 | 0.00 | 0.00 | 0.00 | 30 | 999.0 |
| 20260504192358 | 24 | 311 | 8.0 | 14.5 | 0.00 | 0.00 | 0.00 | 31 | 999.1 |
| 20260504191857 | 24 | 320 | 17.7 | 24.1 | 0.00 | 0.00 | 0.00 | 30 | 999.4 |
| 20260504191354 | 24 | 303 | 6.4 | 12.9 | 0.00 | 0.00 | 0.00 | 31 | 999.2 |
| 20260504190849 | 24 | 294 | 9.7 | 16.1 | 0.00 | 0.00 | 0.00 | 31 | 999.4 |
| 20260504190346 | 24 | 226 | 4.8 | 12.9 | 0.00 | 0.00 | 0.00 | 31 | 999.4 |
| 20260504185842 | 24 | 240 | 8.0 | 11.3 | 0.00 | 0.00 | 0.00 | 31 | 999.4 |
| 20260504185339 | 24 | 237 | 8.0 | 11.3 | 0.00 | 0.00 | 0.00 | 32 | 999.5 |
| 20260504184835 | 25 | 317 | 0.0 | 0.0 | 0.00 | 0.00 | 0.00 | 32 | 999.6 |
| 20260504184332 | 25 | 188 | 4.8 | 8.0 | 0.00 | 0.00 | 0.00 | 32 | 999.5 |
| 20260504183827 | 24 | 215 | 1.6 | 8.0 | 0.00 | 0.00 | 0.00 | 32 | 999.7 |
| 20260504183325 | 23 | 187 | 12.9 | 17.7 | 0.00 | 0.00 | 0.00 | 32 | 1000.0 |
| 20260504182822 | 24 | 302 | 9.7 | 12.9 | 0.00 | 0.00 | 0.00 | 31 | 999.9 |
| 20260504182320 | 23 | 237 | 11.3 | 17.7 | 0.00 | 0.00 | 0.00 | 31 | 999.8 |
| 20260504181817 | 23 | 210 | 20.9 | 27.4 | 0.00 | 0.00 | 0.00 | 31 | 999.7 |
| 20260504181314 | 23 | 257 | 8.0 | 22.5 | 0.00 | 0.00 | 0.00 | 32 | 999.8 |
| 20260504180812 | 23 | 256 | 9.7 | 14.5 | 0.00 | 0.00 | 0.00 | 34 | 1000.3 |
| 20260504180305 | 23 | 260 | 4.8 | 9.7 | 0.00 | 0.00 | 0.00 | 34 | 1000.2 |
| 20260504175803 | 23 | 306 | 11.3 | 14.5 | 0.00 | 0.00 | 0.00 | 33 | 1000.1 |
| 20260504175259 | 23 | 254 | 11.3 | 16.1 | 0.00 | 0.00 | 0.00 | 33 | 1000.3 |
| 20260504174758 | 23 | 216 | 12.9 | 16.1 | 0.00 | 0.00 | 0.00 | 32 | 1000.1 |
| 20260504174255 | 23 | 279 | 16.1 | 20.9 | 0.00 | 0.00 | 0.00 | 33 | 1000.3 |
| 20260504173751 | 23 | 201 | 14.5 | 24.1 | 0.00 | 0.00 | 0.00 | 33 | 1000.4 |
| 20260504173248 | 23 | 247 | 3.2 | 4.8 | 0.00 | 0.00 | 0.00 | 33 | 1000.6 |
| 20260504172745 | 23 | 226 | 8.0 | 11.3 | 0.00 | 0.00 | 0.00 | 33 | 1000.6 |
| 20260504172242 | 23 | 70 | 0.0 | 0.0 | 0.00 | 0.00 | 0.00 | 34 | 1000.4 |
| 20260504171738 | 23 | 165 | 4.8 | 8.0 | 0.00 | 0.00 | 0.00 | 36 | 1000.8 |
| 20260504171235 | 23 | 252 | 11.3 | 16.1 | 0.00 | 0.00 | 0.00 | 34 | 1000.8 |
| 20260504170732 | 23 | 206 | 6.4 | 8.0 | 0.00 | 0.00 | 0.00 | 39 | 1000.8 |
| 20260504170229 | 23 | 225 | 4.8 | 4.8 | 0.00 | 0.00 | 0.00 | 38 | 1000.9 |
| 20260504160148 | 21 | 258 | 1.6 | 1.6 | 0.00 | 0.00 | 0.00 | 47 | 1002.0 |
| 20260504151115 | 19 | 251 | 0.0 | 1.6 | 0.00 | 0.00 | 0.00 | 57 | 1002.7 |
| 20260504150613 | 18 | 184 | 3.2 | 8.0 | 0.00 | 0.00 | 0.00 | 59 | 1002.9 |
| 20260504150110 | 18 | 280 | 8.0 | 11.3 | 0.00 | 0.00 | 0.00 | 58 | 1002.9 |
| 20260504141038 | 16 | 205 | 3.2 | 3.2 | 0.00 | 0.00 | 0.00 | 63 | 1003.4 |
| 20260504140535 | 16 | 262 | 1.6 | 3.2 | 0.00 | 0.00 | 0.00 | 65 | 1003.2 |
| 20260504130459 | 14 | 317 | 3.2 | 3.2 | 0.00 | 0.00 | 0.00 | 70 | 1003.5 |
| 20260504110346 | 8 | 293 | 1.6 | 1.6 | 0.00 | 0.00 | 0.00 | 86 | 1003.6 |
| 20260504100304 | 8 | 229 | 0.0 | 0.0 | 0.00 | 0.00 | 0.00 | 86 | 1004.0 |
| 20260504081657 | 9 | 313 | 0.0 | 0.0 | 0.00 | 0.00 | 0.00 | 81 | 1004.5 |
| 20260504081153 | 9 | 199 | 1.6 | 1.6 | 0.00 | 0.00 | 0.00 | 81 | 1004.7 |
| 20260504080650 | 9 | 188 | 0.0 | 0.0 | 0.00 | 0.00 | 0.00 | 80 | 1004.4 |
| 20260504080146 | 9 | 269 | 0.0 | 0.0 | 0.00 | 0.00 | 0.00 | 80 | 1004.6 |
| 20260504070114 | 10 | 220 | 1.6 | 3.2 | 0.00 | 0.00 | 0.00 | 77 | 1005.4 |
| 20260504050503 | 10 | 306 | 0.0 | 0.0 | 0.00 | 0.00 | 0.00 | 73 | 1006.5 |
| 20260504050000 | 10 | 256 | 3.2 | 3.2 | 0.00 | 0.00 | 0.00 | 72 | 1006.5 |
| 20260504045455 | 10 | 327 | 0.0 | 1.6 | 0.00 | 0.00 | 0.00 | 72 | 1006.6 |
| 20260504044952 | 10 | 133 | 3.2 | 8.0 | 0.00 | 0.00 | 0.00 | 72 | 1006.7 |
| 20260504044449 | 10 | 218 | 1.6 | 3.2 | 0.00 | 0.00 | 0.00 | 73 | 1006.6 |
| 20260504043946 | 10 | 212 | 4.8 | 4.8 | 0.00 | 0.00 | 0.00 | 72 | 1006.5 |
| 20260504043443 | 10 | 184 | 1.6 | 1.6 | 0.00 | 0.00 | 0.00 | 73 | 1006.3 |
| 20260504042941 | 10 | 201 | 3.2 | 4.8 | 0.00 | 0.00 | 0.00 | 72 | 1006.5 |
| 20260504042437 | 10 | 86 | 1.6 | 4.8 | 0.00 | 0.00 | 0.00 | 71 | 1006.4 |
| 20260504041934 | 10 | 268 | 4.8 | 8.0 | 0.00 | 0.00 | 0.00 | 72 | 1006.4 |
| 20260504041430 | 10 | 132 | 8.0 | 11.3 | 0.00 | 0.00 | 0.00 | 72 | 1006.5 |
| 20260504040926 | 10 | 216 | 3.2 | 3.2 | 0.00 | 0.00 | 0.00 | 72 | 1006.6 |
| 20260504040424 | 10 | 240 | 6.4 | 14.5 | 0.00 | 0.00 | 0.00 | 72 | 1006.7 |
| 20260504035920 | 10 | 213 | 0.0 | 1.6 | 0.00 | 0.00 | 0.00 | 72 | 1006.6 |
| 20260504035418 | 10 | 88 | 1.6 | 1.6 | 0.00 | 0.00 | 0.00 | 71 | 1006.8 |
| 20260504034914 | 10 | 115 | 4.8 | 4.8 | 0.00 | 0.00 | 0.00 | 72 | 1006.9 |
| 20260504034412 | 10 | 180 | 4.8 | 4.8 | 0.00 | 0.00 | 0.00 | 72 | 1007.0 |
| 20260504033909 | 11 | 236 | 4.8 | 4.8 | 0.00 | 0.00 | 0.00 | 71 | 1006.8 |
| 20260504033406 | 10 | 181 | 6.4 | 9.7 | 0.00 | 0.00 | 0.00 | 71 | 1007.0 |
| 20260504032902 | 10 | 207 | 1.6 | 3.2 | 0.00 | 0.00 | 0.00 | 71 | 1006.9 |
| 20260504032359 | 10 | 202 | 1.6 | 3.2 | 0.00 | 0.00 | 0.00 | 70 | 1006.8 |
| 20260504031856 | 11 | 187 | 0.0 | 0.0 | 0.00 | 0.00 | 0.00 | 70 | 1007.0 |
| 20260504031353 | 11 | 184 | 1.6 | 4.8 | 0.00 | 0.00 | 0.00 | 70 | 1007.0 |
| 20260504030849 | 11 | 61 | 1.6 | 1.6 | 0.00 | 0.00 | 0.00 | 70 | 1007.1 |
| 20260504030347 | 11 | 193 | 6.4 | 8.0 | 0.00 | 0.00 | 0.00 | 69 | 1007.3 |
| 20260504025843 | 11 | 248 | 1.6 | 3.2 | 0.00 | 0.00 | 0.00 | 70 | 1007.2 |
| 20260504025340 | 11 | 128 | 3.2 | 4.8 | 0.00 | 0.00 | 0.00 | 70 | 1007.1 |
| 20260504024837 | 11 | 234 | 1.6 | 1.6 | 0.00 | 0.00 | 0.00 | 70 | 1007.1 |
| 20260504024333 | 11 | 182 | 3.2 | 3.2 | 0.00 | 0.00 | 0.00 | 70 | 1007.4 |
| 20260504023830 | 11 | 265 | 1.6 | 1.6 | 0.00 | 0.00 | 0.00 | 69 | 1007.1 |
| 20260504023327 | 11 | 217 | 3.2 | 4.8 | 0.00 | 0.00 | 0.00 | 68 | 1007.2 |
| 20260504022822 | 11 | 234 | 3.2 | 3.2 | 0.00 | 0.00 | 0.00 | 69 | 1007.3 |
| 20260504022320 | 11 | 317 | 3.2 | 3.2 | 0.00 | 0.00 | 0.00 | 69 | 1007.3 |
| 20260504021816 | 11 | 147 | 1.6 | 3.2 | 0.00 | 0.00 | 0.00 | 68 | 1007.6 |
| 20260504021314 | 11 | 265 | 0.0 | 0.0 | 0.00 | 0.00 | 0.00 | 68 | 1007.5 |
| 20260504020810 | 11 | 180 | 11.3 | 12.9 | 0.00 | 0.00 | 0.00 | 68 | 1007.4 |
| 20260504020308 | 11 | 201 | 3.2 | 3.2 | 0.00 | 0.00 | 0.00 | 68 | 1007.4 |
| 20260504015803 | 11 | 273 | 3.2 | 4.8 | 0.00 | 0.00 | 0.00 | 67 | 1007.4 |
| 20260504015300 | 11 | 183 | 1.6 | 3.2 | 0.00 | 0.00 | 0.00 | 67 | 1007.6 |
| 20260504014755 | 11 | 267 | 3.2 | 3.2 | 0.00 | 0.00 | 0.00 | 66 | 1007.3 |
| 20260504014252 | 11 | 333 | 6.4 | 14.5 | 0.00 | 0.00 | 0.00 | 66 | 1007.5 |
| 20260504013749 | 11 | 244 | 1.6 | 3.2 | 0.00 | 0.00 | 0.00 | 66 | 1007.1 |
| 20260504013247 | 11 | 265 | 11.3 | 12.9 | 0.00 | 0.00 | 0.00 | 65 | 1007.3 |
| 20260504012743 | 12 | 309 | 0.0 | 3.2 | 0.00 | 0.00 | 0.00 | 65 | 1007.5 |
| 20260504012241 | 12 | 281 | 0.0 | 1.6 | 0.00 | 0.00 | 0.00 | 66 | 1007.4 |
| 20260504011738 | 12 | 202 | 4.8 | 8.0 | 0.00 | 0.00 | 0.00 | 65 | 1007.3 |
| 20260504011235 | 12 | 255 | 4.8 | 8.0 | 0.00 | 0.00 | 0.00 | 65 | 1007.5 |
| 20260504010731 | 12 | 233 | 12.9 | 17.7 | 0.00 | 0.00 | 0.00 | 64 | 1007.4 |
| 20260504010226 | 12 | 200 | 6.4 | 8.0 | 0.00 | 0.00 | 0.00 | 64 | 1007.6 |
| 20260504005723 | 12 | 291 | 6.4 | 8.0 | 0.00 | 0.00 | 0.00 | 64 | 1007.5 |
| 20260504005220 | 12 | 278 | 4.8 | 8.0 | 0.00 | 0.00 | 0.00 | 64 | 1007.4 |
| 20260504004718 | 12 | 211 | 8.0 | 12.9 | 0.00 | 0.00 | 0.00 | 64 | 1007.5 |
| 20260504004215 | 12 | 267 | 6.4 | 9.7 | 0.00 | 0.00 | 0.00 | 64 | 1007.5 |
| 20260504003712 | 12 | 287 | 11.3 | 14.5 | 0.00 | 0.00 | 0.00 | 64 | 1007.5 |
| 20260504003208 | 12 | 54 | 1.6 | 3.2 | 0.00 | 0.00 | 0.00 | 64 | 1007.6 |
| 20260504002705 | 12 | 264 | 3.2 | 8.0 | 0.00 | 0.00 | 0.00 | 63 | 1007.6 |
| 20260504002203 | 12 | 257 | 8.0 | 9.7 | 0.00 | 0.00 | 0.00 | 62 | 1007.6 |
| 20260504001701 | 12 | 267 | 8.0 | 14.5 | 0.00 | 0.00 | 0.00 | 61 | 1007.6 |
| 20260504001157 | 13 | 214 | 3.2 | 4.8 | 0.00 | 0.00 | 0.00 | 60 | 1007.5 |
| 20260504000654 | 13 | 261 | 4.8 | 8.0 | 0.00 | 0.00 | 0.00 | 59 | 1007.6 |
| 20260504000151 | 13 | 197 | 16.1 | 20.9 | 0.00 | 0.00 | 0.00 | 58 | 1007.6 |
| 20260503235649 | 13 | 153 | 4.8 | 8.0 | 0.00 | 0.00 | 0.00 | 58 | 1007.5 |
| 20260503235146 | 14 | 228 | 11.3 | 12.9 | 0.00 | 0.00 | 0.00 | 57 | 1007.3 |
| 20260503234644 | 14 | 306 | 8.0 | 9.7 | 0.00 | 0.00 | 0.00 | 56 | 1007.5 |
| 20260503234142 | 14 | 228 | 14.5 | 24.1 | 0.00 | 0.00 | 0.00 | 56 | 1007.4 |
| 20260503233638 | 14 | 194 | 6.4 | 9.7 | 0.00 | 0.00 | 0.00 | 55 | 1007.3 |
| 20260503233134 | 14 | 172 | 4.8 | 4.8 | 0.00 | 0.00 | 0.00 | 55 | 1007.3 |
| 20260503232631 | 15 | 291 | 8.0 | 9.7 | 0.00 | 0.00 | 0.00 | 54 | 1007.2 |
| 20260503232129 | 15 | 194 | 11.3 | 14.5 | 0.00 | 0.00 | 0.00 | 53 | 1007.4 |
| 20260503231627 | 15 | 240 | 6.4 | 9.7 | 0.00 | 0.00 | 0.00 | 53 | 1007.4 |
| 20260503231123 | 15 | 234 | 12.9 | 20.9 | 0.00 | 0.00 | 0.00 | 53 | 1007.4 |
| 20260503230620 | 15 | 200 | 1.6 | 4.8 | 0.00 | 0.00 | 0.00 | 54 | 1007.4 |
| 20260503230117 | 15 | 215 | 6.4 | 9.7 | 0.00 | 0.00 | 0.00 | 54 | 1007.5 |
| 20260503225614 | 15 | 308 | 6.4 | 8.0 | 0.00 | 0.00 | 0.00 | 55 | 1007.6 |
| 20260503225114 | 15 | 249 | 3.2 | 4.8 | 0.00 | 0.00 | 0.00 | 55 | 1007.3 |
| 20260503224611 | 15 | 288 | 4.8 | 4.8 | 0.00 | 0.00 | 0.00 | 53 | 1007.5 |
| 20260503224109 | 15 | 211 | 4.8 | 8.0 | 0.00 | 0.00 | 0.00 | 52 | 1007.4 |
| 20260503223607 | 15 | 265 | 6.4 | 8.0 | 0.00 | 0.00 | 0.00 | 51 | 1007.6 |